LZ2SMX-2 Weather Reports


Display with metric or nautical units.
time (UTC)temp
F
wind
direction
speed
MPH
gust
MPH
rain 1hr
in
rain 24hr
in
rain mn
in
humidity
%
barometer
mb
20260505123309 66 135 2.0 3.0 0.00 0.00 0.00 44 990.0
20260505121307 68 157 2.0 3.0 0.00 0.00 0.00 44 989.0
20260505115308 68 157 3.0 5.0 0.00 0.00 0.00 44 989.0
20260505113308 69 157 3.0 5.0 0.00 0.00 0.00 42 989.0
20260505111309 68 112 3.0 6.0 0.00 0.00 0.00 42 989.0
20260505101308 69 135 4.0 8.0 0.00 0.00 0.00 38 989.0
20260505095308 71 135 4.0 6.0 0.00 0.00 0.00 38 990.0
20260505093308 71 112 1.0 3.0 0.00 0.00 0.00 36 989.0
20260505085309 71 112 2.0 5.0 0.00 0.00 0.00 38 990.0
20260505083310 69 67 0.0 3.0 0.00 0.00 0.00 36 990.0
20260505081309 69 112 1.0 3.0 0.00 0.00 0.00 36 990.0
20260505075309 69 67 1.0 6.0 0.00 0.00 0.00 36 991.0
20260505073308 68 67 0.0 2.0 0.00 0.00 0.00 38 991.0
20260505071308 68 45 0.0 2.0 0.00 0.00 0.00 37 990.0
20260505065308 66 45 0.0 2.0 0.00 0.00 0.00 39 990.0
20260505063308 64 45 0.0 1.0 0.00 0.00 0.00 41 990.0
20260505061309 62 315 0.0 0.0 0.00 0.00 0.00 44 990.0
20260505055309 62 315 0.0 1.0 0.00 0.00 0.00 48 990.0
20260505053309 60 337 0.0 1.0 0.00 0.00 0.00 50 990.0
20260505051308 57 337 0.0 2.0 0.00 0.00 0.00 52 990.0
20260505041309 53 337 1.0 1.0 0.00 0.00 0.00 55 990.0
20260505035309 51 337 1.0 2.0 0.00 0.00 0.00 54 989.0
20260505033310 50 337 1.0 2.0 0.00 0.00 0.00 56 990.0
20260505031309 48 315 1.0 2.0 0.00 0.00 0.00 59 990.0
20260505025309 46 315 0.0 1.0 0.00 0.00 0.00 60 990.0
20260505023308 46 315 0.0 2.0 0.00 0.00 0.00 59 990.0
20260505021309 48 315 0.0 1.0 0.00 0.00 0.00 59 990.0
20260505015309 48 315 0.0 1.0 0.00 0.00 0.00 59 990.0
20260505013309 48 315 1.0 2.0 0.00 0.00 0.00 58 990.0
20260505011308 46 315 0.0 1.0 0.00 0.00 0.00 60 990.0
20260505005308 46 337 0.0 2.0 0.00 0.00 0.00 61 990.0
20260505003310 46 315 0.0 1.0 0.00 0.00 0.00 61 990.0
20260505001308 44 315 0.0 1.0 0.00 0.00 0.00 62 990.0
20260504235310 46 315 0.0 0.0 0.00 0.00 0.00 60 990.0
20260504233309 46 315 0.0 1.0 0.00 0.00 0.00 60 990.0
20260504231309 46 315 0.0 0.0 0.00 0.00 0.00 57 991.0
20260504225309 48 315 0.0 1.0 0.00 0.00 0.00 58 990.0
20260504223309 48 315 0.0 0.0 0.00 0.00 0.00 57 990.0
20260504221309 48 315 0.0 2.0 0.00 0.00 0.00 58 990.0
20260504215309 48 337 0.0 1.0 0.00 0.00 0.00 58 990.0
20260504213309 48 337 1.0 2.0 0.00 0.00 0.00 57 990.0
20260504211309 48 337 0.0 1.0 0.00 0.00 0.00 57 990.0
20260504205308 48 337 0.0 1.0 0.00 0.00 0.00 59 990.0
20260504203310 48 337 0.0 2.0 0.00 0.00 0.00 58 990.0
20260504201309 48 337 0.0 1.0 0.00 0.00 0.00 57 990.0
20260504195309 50 337 0.0 0.0 0.00 0.00 0.00 54 990.0
20260504193309 50 67 0.0 0.0 0.00 0.00 0.00 55 990.0
20260504191309 50 67 0.0 0.0 0.00 0.00 0.00 55 990.0
20260504185309 50 67 0.0 0.0 0.00 0.00 0.00 56 990.0
20260504183309 50 67 0.0 0.0 0.00 0.00 0.00 56 991.0
20260504181309 50 67 0.0 0.0 0.00 0.00 0.00 55 990.0
20260504175308 51 67 0.0 0.0 0.00 0.00 0.00 54 990.0
20260504173308 51 67 0.0 0.0 0.00 0.00 0.00 55 991.0
20260504171309 53 67 0.0 0.0 0.00 0.00 0.00 55 990.0
20260504141309 62 337 2.0 5.0 0.00 0.00 0.00 49 989.0